Dubois, WY

9:54 PM MST on February 08, 2016 (GMT -0700)
Dubois Muni, Dubois, WY

Weather History for KDUB - March, 2014

Change the Weather History Date:

Wednesday, March 5, 2014

  Actual Average (KJAC) Record (KJAC)
Temperature  
Mean Temperature 31 °F -  
Max Temperature 39 °F 35 °F 50 °F (1968)
Min Temperature 23 °F 3 °F -23 °F (1966)
Degree Days  
Heating Degree Days 34    
Moisture  
Dew Point 21 °F    
Average Humidity 63    
Maximum Humidity 86    
Minimum Humidity 49    
Precipitation  
Precipitation 0.00 in - - ()
Sea Level Pressure  
Sea Level Pressure 30.01 in    
Wind  
Wind Speed 17 mph (WNW)    
Max Wind Speed 47 mph    
Max Gust Speed 54 mph    
Visibility 10 miles    
Events      
Averages and records for this station are not official NWS values.
T = Trace of Precipitation, MM = Missing Value Source: NWS Daily Summary

Daily Weather History Graph

Daily Weather History Graph

Search for Another Location

Airport or City:

Trip Planner

Search our weather history database for the weather conditions in past years. The results will help you decide how hot, cold, wet, or windy it might be!

Date:

Astronomy

Mar. 05, 2014 Rise Set
Actual Time 6:48 AM MST 6:12 PM MST
Civil Twilight 6:19 AM MST 6:41 PM MST
Nautical Twilight 5:46 AM MST 7:14 PM MST
Astronomical Twilight 5:13 AM MST 7:47 PM MST
Moon 9:07 AM MST (3/5) 11:34 PM MST (3/5)
Length of Visible Light 12h 21m
Length of Day
11h 24m
Waxing Crescent, 24% of the Moon is Illuminated
Mar 5
Waxing Crescent
Mar 8
First Quarter
Mar 16
Full
Mar 23
Last Quarter
Mar 30
New

Hourly Weather History & Observations

Time (MST) Temp. Windchill Dew Point Humidity Pressure Visibility Wind Dir Wind Speed Gust Speed Precip Events Conditions
12:15 AM 28.4 °F 18.5 °F 21.2 °F 74% 30.04 in 10.0 mi NW 11.5 mph - N/A   Mostly Cloudy
12:35 AM 24.8 °F 14.6 °F 19.4 °F 80% 30.03 in 10.0 mi NW 10.4 mph - N/A   Scattered Clouds
12:55 AM 26.6 °F 16.8 °F 19.4 °F 74% 30.03 in 10.0 mi NNW 10.4 mph - N/A   Clear
1:15 AM 23.0 °F 11.7 °F 19.4 °F 86% 30.02 in 10.0 mi NW 11.5 mph - N/A   Clear
1:35 AM 23.0 °F 11.7 °F 19.4 °F 86% 30.02 in 10.0 mi NNW 11.5 mph - N/A   Clear
1:55 AM 23.0 °F 12.4 °F 19.4 °F 86% 30.02 in 10.0 mi NW 10.4 mph - N/A   Clear
2:15 AM 26.6 °F 16.8 °F 19.4 °F 74% 30.02 in 10.0 mi NNW 10.4 mph - N/A   Scattered Clouds
2:35 AM 26.6 °F 16.8 °F 19.4 °F 74% 30.02 in 10.0 mi WNW 10.4 mph - N/A   Scattered Clouds
2:55 AM 26.6 °F 15.7 °F 19.4 °F 74% 30.02 in 10.0 mi NW 12.7 mph 18.4 mph N/A   Clear
3:15 AM 26.6 °F 17.5 °F 19.4 °F 74% 30.02 in 10.0 mi NW 9.2 mph - N/A   Clear
3:35 AM 26.6 °F 17.5 °F 19.4 °F 74% 30.03 in 10.0 mi NW 9.2 mph - N/A   Clear
3:55 AM 24.8 °F 15.3 °F 19.4 °F 80% 30.03 in 10.0 mi NNW 9.2 mph - N/A   Mostly Cloudy
4:15 AM 24.8 °F 12.9 °F 19.4 °F 80% 30.03 in 10.0 mi NNW 13.8 mph - N/A   Mostly Cloudy
4:35 AM 24.8 °F 12.9 °F 19.4 °F 80% 30.03 in 10.0 mi NNW 13.8 mph - N/A   Scattered Clouds
4:55 AM 24.8 °F 12.4 °F 17.6 °F 74% 30.04 in 10.0 mi NNW 15.0 mph 18.4 mph N/A   Clear
5:15 AM 24.8 °F 14.0 °F 19.4 °F 80% 30.05 in 10.0 mi NNW 11.5 mph - N/A   Clear
5:35 AM 26.6 °F 19.1 °F 19.4 °F 74% 30.05 in 10.0 mi North 6.9 mph - N/A   Clear
5:55 AM 26.6 °F 18.2 °F 19.4 °F 74% 30.06 in 10.0 mi North 8.1 mph - N/A   Clear
6:15 AM 26.6 °F 18.2 °F 17.6 °F 69% 30.06 in 10.0 mi NNW 8.1 mph - N/A   Mostly Cloudy
6:35 AM 24.8 °F 14.6 °F 17.6 °F 74% 30.06 in 10.0 mi NNW 10.4 mph - N/A   Scattered Clouds
6:55 AM 24.8 °F 14.6 °F 17.6 °F 74% 30.06 in 10.0 mi NNW 10.4 mph - N/A   Clear
7:15 AM 24.8 °F 13.4 °F 17.6 °F 74% 30.06 in 10.0 mi NNW 12.7 mph - N/A   Clear
7:35 AM 24.8 °F 14.6 °F 17.6 °F 74% 30.06 in 10.0 mi North 10.4 mph - N/A   Clear
7:55 AM 28.4 °F 18.0 °F 19.4 °F 69% 30.06 in 10.0 mi North 12.7 mph 19.6 mph N/A   Clear
8:15 AM 28.4 °F 17.0 °F 19.4 °F 69% 30.06 in 10.0 mi North 15.0 mph 19.6 mph N/A   Clear
8:35 AM 30.2 °F 20.8 °F 19.4 °F 64% 30.05 in 10.0 mi North 11.5 mph 18.4 mph N/A   Clear
8:55 AM 32.0 °F 23.0 °F 19.4 °F 60% 30.05 in 10.0 mi NNW 11.5 mph 18.4 mph N/A   Clear
9:15 AM 33.8 °F 26.4 °F 19.4 °F 56% 30.05 in 10.0 mi NNW 9.2 mph 19.6 mph N/A   Clear
9:35 AM 33.8 °F 26.4 °F 19.4 °F 56% 30.05 in 10.0 mi NNW 9.2 mph 19.6 mph N/A   Clear
9:55 AM 33.8 °F 21.9 °F 19.4 °F 56% 30.04 in 10.0 mi West 21.9 mph 27.6 mph N/A   Clear
10:15 AM 35.6 °F 23.7 °F 19.4 °F 52% 30.04 in 10.0 mi West 24.2 mph 33.4 mph N/A   Clear
10:35 AM 35.6 °F 25.5 °F 21.2 °F 56% 30.05 in 10.0 mi WNW 17.3 mph 28.8 mph N/A   Clear
10:55 AM 35.6 °F 25.2 °F 21.2 °F 56% 30.06 in 10.0 mi WNW 18.4 mph 28.8 mph N/A   Clear
11:15 AM 37.4 °F 26.9 °F 21.2 °F 52% 30.05 in 10.0 mi WNW 20.7 mph - N/A   Scattered Clouds
11:35 AM 37.4 °F 28.2 °F 21.2 °F 52% 30.05 in 10.0 mi WNW 16.1 mph 24.2 mph N/A   Clear
11:55 AM 37.4 °F 26.6 °F 21.2 °F 52% 30.04 in 10.0 mi WNW 21.9 mph 29.9 mph N/A   Clear
12:15 PM 37.4 °F 26.9 °F 21.2 °F 52% 30.03 in 10.0 mi WNW 20.7 mph 28.8 mph N/A   Clear
12:35 PM 37.4 °F 26.4 °F 23.0 °F 56% 30.02 in 10.0 mi West 23.0 mph 28.8 mph N/A   Clear
12:55 PM 37.4 °F 26.6 °F 21.2 °F 52% 30.00 in 10.0 mi West 21.9 mph 32.2 mph N/A   Clear
1:15 PM 37.4 °F 26.1 °F 21.2 °F 52% 30.00 in 10.0 mi West 24.2 mph 39.1 mph N/A   Clear
1:35 PM 39.2 °F 30.2 °F 23.0 °F 52% 29.99 in 10.0 mi NNW 17.3 mph 24.2 mph N/A   Clear
1:55 PM 37.4 °F 27.2 °F 23.0 °F 56% 29.99 in 10.0 mi NNW 19.6 mph 29.9 mph N/A   Clear
2:15 PM 39.2 °F 31.2 °F 21.2 °F 49% 29.99 in 10.0 mi NW 13.8 mph 27.6 mph N/A   Clear
2:35 PM 39.2 °F 27.6 °F 21.2 °F 49% 29.98 in 10.0 mi West 28.8 mph 34.5 mph N/A   Clear
2:55 PM 37.4 °F 26.6 °F 21.2 °F 52% 29.99 in 10.0 mi West 21.9 mph 31.1 mph N/A   Clear
3:15 PM 37.4 °F 26.1 °F 23.0 °F 56% 29.99 in 10.0 mi West 24.2 mph 33.4 mph N/A   Clear
3:35 PM 37.4 °F 25.4 °F 21.2 °F 52% 29.97 in 10.0 mi West 27.6 mph 34.5 mph N/A   Clear
3:55 PM 37.4 °F 27.2 °F 23.0 °F 56% 29.98 in 10.0 mi West 19.6 mph 27.6 mph N/A   Clear
4:15 PM 35.6 °F 23.7 °F 21.2 °F 56% 29.98 in 10.0 mi WNW 24.2 mph 33.4 mph N/A   Clear
4:35 PM 35.6 °F 23.2 °F 21.2 °F 56% 29.98 in 10.0 mi WNW 26.5 mph 36.8 mph N/A   Clear
4:55 PM 35.6 °F 24.0 °F 21.2 °F 56% 29.99 in 10.0 mi WNW 23.0 mph 33.4 mph N/A   Mostly Cloudy
5:15 PM 35.6 °F 25.5 °F 21.2 °F 56% 29.98 in 10.0 mi NW 17.3 mph 26.5 mph N/A   Mostly Cloudy
5:35 PM 35.6 °F 23.2 °F 21.2 °F 56% 29.97 in 10.0 mi West 26.5 mph 33.4 mph N/A   Scattered Clouds
5:55 PM 35.6 °F 24.0 °F 19.4 °F 52% 29.96 in 10.0 mi WNW 23.0 mph 31.1 mph N/A   Clear
6:15 PM 33.8 °F 20.8 °F 19.4 °F 56% 29.96 in 10.0 mi West 26.5 mph 38.0 mph N/A   Clear
6:35 PM 35.6 °F 21.7 °F 21.2 °F 56% 29.97 in 10.0 mi West 34.5 mph 41.4 mph N/A   Clear
6:55 PM 35.6 °F 20.8 °F 21.2 °F 56% 29.95 in 10.0 mi West 40.3 mph 48.3 mph N/A   Clear
7:15 PM 35.6 °F 19.8 °F 21.2 °F 56% 29.93 in 10.0 mi West 47.2 mph 54.1 mph N/A   Clear
7:35 PM 33.8 °F 18.6 °F 21.2 °F 60% 29.94 in 10.0 mi West 38.0 mph 51.8 mph N/A   Clear
7:55 PM 33.8 °F 19.0 °F 21.2 °F 60% 29.95 in 10.0 mi West 35.7 mph 49.5 mph N/A   Clear
8:15 PM 35.6 °F 20.1 °F 21.2 °F 56% 29.93 in 10.0 mi West 44.9 mph 50.6 mph N/A   Clear
8:35 PM 33.8 °F 17.9 °F 21.2 °F 60% 29.93 in 10.0 mi West 42.6 mph 51.8 mph N/A   Scattered Clouds
8:55 PM 35.6 °F 21.3 °F 21.2 °F 56% 29.95 in 10.0 mi West 36.8 mph 49.5 mph N/A   Scattered Clouds
9:15 PM 35.6 °F 21.3 °F 21.2 °F 56% 29.96 in 10.0 mi West 36.8 mph 44.9 mph N/A   Clear
9:35 PM 35.6 °F 21.1 °F 21.2 °F 56% 29.95 in 10.0 mi West 38.0 mph 50.6 mph N/A   Scattered Clouds
9:55 PM 35.6 °F 21.5 °F 23.0 °F 60% 29.96 in 10.0 mi West 35.7 mph 44.9 mph N/A   Mostly Cloudy
10:10 PM 35.6 °F 22.1 °F 23.0 °F 60% 29.96 in 10.0 mi West 32.2 mph 41.4 mph N/A   Scattered Clouds
10:35 PM 35.6 °F 23.7 °F 23.0 °F 60% 29.97 in 10.0 mi West 24.2 mph 28.8 mph N/A   Clear
10:55 PM 35.6 °F 23.0 °F 23.0 °F 60% 29.97 in 10.0 mi West 27.6 mph 38.0 mph N/A   Scattered Clouds
11:15 PM 35.6 °F 21.9 °F 23.0 °F 60% 29.96 in 10.0 mi West 33.4 mph 39.1 mph N/A   Scattered Clouds
11:35 PM 35.6 °F 22.1 °F 21.2 °F 56% 29.95 in 10.0 mi West 32.2 mph 36.8 mph N/A   Clear
11:55 PM 35.6 °F 24.8 °F 21.2 °F 56% 29.96 in 10.0 mi WNW 19.6 mph 28.8 mph N/A   Clear